Weather History for NW Arkansas Airport, AR

Change the Weather History Date:

Wednesday, January 8, 2014

  Actual Average Record
Temperature  
Mean Temperature 30 °F -  
Max Temperature 34 °F - - ()
Min Temperature 26 °F - - ()
Degree Days  
Heating Degree Days 35    
Moisture  
Dew Point 27 °F    
Average Humidity 85    
Maximum Humidity 100    
Minimum Humidity 54    
Precipitation  
Precipitation 0.14 in - - ()
Sea Level Pressure  
Sea Level Pressure 30.26 in    
Wind  
Wind Speed 8 mph (SE)    
Max Wind Speed 12 mph    
Max Gust Speed -    
Visibility 5 miles    
Events Rain , Snow    
T = Trace of Precipitation, MM = Missing Value Source: NWS Daily Summary

Daily Weather History Graph

Daily Weather History Graph

Search for Another Location

Airport:

Trip Planner

Search our weather history database for the weather conditions in past years. The results will help you decide how hot, cold, wet, or windy it might be!

Date:

Astronomy

Jan. 08, 2014 Rise Set
Actual Time 7:28 AM CST 5:19 PM CST
Civil Twilight 7:00 AM CST 5:47 PM CST
Nautical Twilight 6:28 AM CST 6:19 PM CST
Astronomical Twilight 5:57 AM CST 6:50 PM CST
Moon 12:06 PM CST (1/8) 12:41 AM CST (1/8)
Length of Visible Light 10h 46m
Length of Day
9h 50m
First Quarter, 56% of the Moon is Illuminated
Jan 8
First Quarter
Jan 15
Full
Jan 23
Last Quarter
Jan 30
New
Feb 6
First Quarter

Hourly Weather History & Observations

Time (CST) Temp. Windchill Dew Point Humidity Pressure Visibility Wind Dir Wind Speed Gust Speed Precip Events Conditions
12:53 AM 28.9 °F 19.2 °F 14.0 °F 54% 30.25 in 10.0 mi South 11.5 mph - N/A   Clear
1:53 AM 28.9 °F 21.1 °F 14.0 °F 54% 30.28 in 10.0 mi SSW 8.1 mph - N/A   Clear
2:53 AM 28.0 °F 18.6 °F 14.0 °F 56% 30.27 in 10.0 mi South 10.4 mph - N/A   Clear
3:53 AM 28.0 °F 22.8 °F 14.0 °F 56% 30.27 in 10.0 mi South 4.6 mph - N/A   Clear
4:53 AM 26.1 °F 17.6 °F 14.0 °F 60% 30.27 in 10.0 mi South 8.1 mph - N/A   Clear
5:53 AM 26.1 °F 18.4 °F 15.1 °F 63% 30.26 in 10.0 mi SSE 6.9 mph - N/A   Clear
6:53 AM 28.9 °F 21.1 °F 14.0 °F 54% 30.26 in 10.0 mi SSE 8.1 mph - N/A   Clear
7:53 AM 28.0 °F 20.0 °F 15.1 °F 58% 30.27 in 10.0 mi South 8.1 mph - N/A   Partly Cloudy
8:53 AM 30.9 °F 23.5 °F 17.1 °F 57% 30.29 in 10.0 mi South 8.1 mph - N/A   Mostly Cloudy
9:53 AM 33.1 °F 24.9 °F 19.9 °F 59% 30.31 in 10.0 mi South 10.4 mph - N/A   Overcast
10:39 AM 33.8 °F 26.4 °F 24.8 °F 70% 30.28 in 10.0 mi South 9.2 mph - N/A   Overcast
10:53 AM 34.0 °F 26.0 °F 25.0 °F 70% 30.31 in 10.0 mi South 10.4 mph - N/A   Overcast
11:39 AM 32.0 °F 24.2 °F 30.2 °F 93% 30.26 in 3.0 mi South 9.2 mph - 0.00 in   Overcast
11:53 AM 32.0 °F 26.4 °F 30.9 °F 96% 30.29 in 3.0 mi South 5.8 mph - 0.00 in   Overcast
11:57 AM 32.0 °F 25.6 °F 30.2 °F 93% 30.25 in 2.5 mi SSE 6.9 mph - 0.00 in   Overcast
12:23 PM 32.0 °F 25.6 °F 30.2 °F 93% 30.24 in 1.8 mi South 6.9 mph - 0.01 in   Overcast
12:38 PM 32.0 °F 27.5 °F 30.2 °F 93% 30.23 in 1.2 mi SE 4.6 mph - 0.01 in   Overcast
12:53 PM 32.0 °F 28.7 °F 30.9 °F 96% 30.26 in 1.2 mi SE 3.5 mph - 0.01 in   Overcast
1:53 PM 32.0 °F 24.8 °F 32.0 °F 100% 30.25 in 1.5 mi SE 8.1 mph - 0.02 in   Overcast
2:53 PM 32.0 °F 25.6 °F 32.0 °F 100% 30.25 in 1.2 mi ESE 6.9 mph - 0.02 in   Overcast
3:53 PM 33.1 °F 28.7 °F 32.0 °F 96% 30.25 in 1.8 mi ESE 4.6 mph - 0.02 in Rain Light Rain
4:16 PM 33.8 °F 29.6 °F 32.0 °F 93% 30.22 in 2.0 mi ESE 4.6 mph - 0.00 in Rain Light Rain
4:32 PM 33.8 °F 28.6 °F 32.0 °F 93% 30.22 in 1.8 mi ESE 5.8 mph - 0.01 in Rain Light Rain
4:53 PM 32.0 °F 26.4 °F 32.0 °F 100% 30.25 in 2.0 mi ESE 5.8 mph - 0.02 in Rain Light Rain
5:53 PM 32.0 °F 26.4 °F 32.0 °F 100% 30.25 in 2.5 mi ESE 5.8 mph - 0.03 in Snow Light Snow
6:08 PM 32.0 °F 24.8 °F 32.0 °F 100% 30.22 in 3.0 mi ESE 8.1 mph - 0.00 in Snow Light Snow
6:53 PM 32.0 °F 24.8 °F 32.0 °F 100% 30.26 in 3.0 mi ESE 8.1 mph - 0.01 in Snow Light Snow
7:03 PM 32.0 °F 25.6 °F 32.0 °F 100% 30.23 in 2.0 mi ESE 6.9 mph - 0.01 in Snow Light Snow
7:16 PM 32.0 °F 25.6 °F 32.0 °F 100% 30.24 in 4.0 mi ESE 6.9 mph - 0.01 in Snow Light Snow
7:53 PM 32.0 °F 25.6 °F 32.0 °F 100% 30.29 in 5.0 mi ESE 6.9 mph - 0.01 in   Overcast
8:53 PM 32.0 °F 26.4 °F 32.0 °F 100% 30.29 in 4.0 mi ESE 5.8 mph - N/A   Overcast
9:41 PM 32.0 °F 24.8 °F 32.0 °F 100% 30.25 in 6.0 mi SE 8.1 mph - N/A   Overcast
9:50 PM 32.0 °F 25.6 °F 32.0 °F 100% 30.25 in 6.0 mi SE 6.9 mph - N/A   Overcast
9:53 PM 32.0 °F 25.6 °F 32.0 °F 100% 30.28 in 6.0 mi SE 6.9 mph - N/A   Overcast
10:53 PM 32.0 °F 26.4 °F 32.0 °F 100% 30.28 in 4.0 mi SE 5.8 mph - N/A   Overcast
11:43 PM 32.0 °F 25.6 °F 32.0 °F 100% 30.24 in 4.0 mi SE 6.9 mph - N/A   Overcast
11:53 PM 32.0 °F 24.8 °F 32.0 °F 100% 30.27 in 4.0 mi SE 8.1 mph - N/A   Overcast